CAPE
39 66 45 39 39 51 41 35 99 97 88 75 89 64 25 7 0 15 31 48 132 72 19 0 0 0 0 0 0 0 22 10 0 0 0 0 0 0 0 0 0 0 0 0 0 0 0
29 40 48 26 32 30 34 33 12 43 66 94 101 142 107 31 14 44 106 155 35 14 1 0 0 0 0 0 0 0 29 13 1 0 0 0 0 0 0 0 0 0 0 0 0 0 0
23 26 45 24 18 22 20 21 16 1 0 9 43 98 111 96 108 137 96 29 3 0 0 0 0 0 0 0 0 0 0 0 0 0 0 0 0 0 0 0 0 0 0 0 0 0 0
11 17 25 25 17 12 17 15 34 2 0 0 0 3 10 0 0 0 3 0 0 0 0 0 0 0 0 0 0 0 0 0 0 0 0 0 0 0 0 0 0 0 0 0 0 0 0
9 10 13 25 16 19 10 9 8 1 0 0 0 0 0 0 0 0 0 0 0 0 0 0 0 0 0 0 0 0 0 0 0 0 0 0 0 0 5 13 13 4 7 3 0 10 17
7 4 7 10 12 12 19 11 2 0 0 0 0 0 0 0 0 0 0 0 0 0 0 0 0 0 0 0 0 0 0 0 0 0 0 9 3 3 0 32 6 0 16 15 2 0 13
6 4 0 4 8 6 6 5 5 1 0 0 0 0 0 0 0 0 0 0 0 0 0 0 0 0 0 0 0 0 0 0 0 0 0 14 0 0 0 0 0 0 0 0 0 0 2
5 6 1 0 1 2 3 1 2 0 0 0 0 0 0 0 0 0 0 0 0 0 0 0 0 0 0 0 0 0 0 0 0 0 0 0 0 0 0 0 0 2 2 0 0 0 0
5 11 4 0 0 0 0 0 0 0 0 0 0 0 0 0 0 0 0 0 0 0 0 0 0 0 0 0 0 0 0 0 0 0 0 0 0 0 0 0 0 1 0 0 0 0 0
2 2 7 2 0 0 0 0 0 0 0 0 0 0 0 0 0 0 0 0 0 0 0 0 0 0 0 0 0 0 0 0 0 0 0 0 0 0 0 0 0 0 0 0 0 0 0
1 1 1 4 1 0 0 0 0 0 0 0 0 0 0 0 0 0 0 0 0 0 0 0 0 0 0 0 0 0 0 0 0 0 0 0 0 0 0 0 0 0 0 0 0 0 0
2 0 0 0 2 0 0 0 0 0 0 0 0 0 0 0 0 0 0 0 0 0 0 0 0 0 0 0 0 0 0 0 0 0 0 0 0 0 0 0 0 0 0 0 0 0 0
19 0 0 0 0 0 0 0 0 0 0 0 0 0 0 0 0 0 0 0 0 0 0 0 0 0 0 0 0 0 0 0 0 0 0 0 0 0 0 0 0 0 0 0 0 0 0
10 16 0 0 0 0 0 0 0 0 0 0 0 0 0 0 0 0 0 0 0 0 0 0 0 0 0 0 0 0 0 0 0 0 0 0 0 0 0 0 0 0 0 0 0 0 0
14 17 18 6 0 0 0 0 0 0 0 0 0 0 0 0 0 0 0 0 0 0 0 0 0 0 0 0 0 0 0 0 0 0 0 0 0 0 0 0 0 0 0 0 0 0 0
16 8 16 17 3 0 0 0 0 0 0 0 0 0 0 0 0 0 0 0 0 0 0 0 0 0 0 0 0 0 0 0 0 0 0 0 0 0 0 0 0 0 0 0 1 0 0
13 11 14 22 15 0 0 0 0 0 0 0 0 0 0 0 0 0 0 0 0 0 0 0 0 0 0 0 0 0 0 0 0 0 0 0 0 0 0 0 0 0 0 0 0 0 0
4 18 22 15 7 1 0 0 0 0 0 0 0 0 0 0 0 0 0 0 0 0 0 0 0 0 0 0 0 0 0 0 0 0 0 0 0 0 0 0 0 0 0 0 0 0 0
12 16 20 10 0 0 0 0 0 0 0 0 0 0 0 0 0 0 0 0 0 0 0 0 0 0 0 0 0 0 0 0 0 0 0 0 0 0 0 0 0 0 0 0 0 0 0
11 11 16 13 0 0 0 0 0 0 0 0 0 0 0 0 0 0 0 0 0 0 0 0 0 0 0 0 0 0 0 0 0 0 0 0 0 0 0 0 0 0 0 0 0 0 0
12 17 19 17 12 1 2 0 0 0 0 0 0 0 0 0 0 0 0 0 0 0 0 0 0 0 0 0 0 0 0 0 0 0 0 0 0 0 0 0 0 0 0 0 0 0 0
7 15 18 19 18 12 2 4 0 0 0 0 0 0 0 0 0 0 0 0 0 0 0 0 0 0 0 0 0 0 0 0 0 0 0 0 0 0 0 0 0 0 0 0 0 0 0
10 10 11 13 15 12 2 0 0 0 0 0 0 0 0 0 0 0 0 0 0 0 0 0 0 0 0 0 0 0 0 0 0 0 0 0 0 0 0 0 0 0 0 0 0 0 0
13 12 10 10 10 8 0 0 1 0 0 0 0 0 0 0 0 0 0 0 0 0 0 0 0 0 0 0 0 0 0 0 0 0 0 0 0 0 0 0 0 0 0 0 0 0 0
9 23 24 20 15 9 9 2 0 0 0 0 0 0 0 0 0 0 0 0 0 0 0 0 0 0 0 0 0 0 0 0 0 0 0 0 0 0 0 0 0 0 0 0 0 0 0
0 0 0 6 21 10 9 10 6 13 1 0 0 0 0 0 0 0 0 0 0 0 0 0 0 0 0 0 0 0 0 0 0 0 0 0 0 0 0 0 0 0 0 0 0 0 0
4 3 0 0 0 10 12 13 13 7 14 0 0 0 0 0 0 0 0 0 0 0 0 0 0 0 0 0 0 0 0 0 0 0 0 0 0 0 0 0 0 0 0 0 0 0 0
14 20 14 7 5 6 14 17 28 14 10 2 0 0 0 0 0 0 0 0 0 0 0 0 0 0 0 0 0 0 0 0 0 0 0 0 0 0 0 0 0 0 0 0 0 0 0
2 22 24 22 14 24 17 10 25 24 40 47 0 0 0 0 0 0 0 0 0 0 0 0 0 0 0 0 0 0 0 0 0 0 0 0 0 0 0 0 0 0 0 0 0 0 0
CIN
0 0 0 0 0 0 0 0 0 0 0 0 -1 -11 -4 -2 0 -10 -5 -8 -3 -26 -54 0 0 0 0 0 0 0 -13 -20 0 0 0 0 0 0 0 0 0 0 0 0 0 0 0
0 0 0 0 0 0 0 0 0 -3 0 0 0 0 -7 -13 -37 -40 -8 -1 -27 -67 -26 0 0 0 0 0 0 0 -13 -22 -1 0 0 0 0 0 0 0 0 0 0 0 0 0 0
0 0 0 0 0 0 0 0 0 0 0 -21 -3 -1 0 0 0 0 0 -7 -40 0 0 0 0 0 0 0 -6 0 0 0 0 0 0 0 0 0 0 0 0 0 0 0 0 0 0
0 0 0 0 0 0 0 0 0 0 0 0 0 -15 -29 -2 0 0 -34 0 0 0 0 0 0 0 0 0 0 0 0 0 0 0 0 0 0 0 0 0 0 0 0 0 0 0 0
0 0 0 0 0 0 0 0 0 0 0 0 0 0 0 0 0 0 0 0 0 0 0 0 0 0 0 0 0 0 0 0 0 0 0 0 0 0 -13 -10 -9 -7 -8 -3 -2 -15 -16
0 0 0 0 0 0 0 0 0 0 0 0 0 0 0 0 0 0 0 0 0 0 0 0 0 0 0 0 0 0 0 0 0 0 0 -17 -17 -5 -3 -4 -6 -5 -5 -10 -8 0 -11
0 0 0 0 0 0 0 0 0 0 0 0 0 0 0 0 0 0 0 0 0 0 0 0 0 0 0 0 0 0 0 0 0 0 0 -23 0 0 0 0 0 0 0 0 0 0 -20
0 0 0 0 0 0 0 0 0 0 0 0 0 0 0 0 0 0 0 0 0 0 0 0 0 0 0 0 0 0 0 0 0 0 0 0 0 0 0 0 0 -7 -8 0 0 0 0
0 0 0 0 0 0 0 0 0 0 0 0 0 0 0 0 0 0 0 0 0 0 0 0 0 0 0 0 0 0 0 0 0 0 0 0 0 0 0 0 0 -45 0 -12 0 0 0
0 0 0 0 0 0 0 0 0 0 0 0 0 0 0 0 0 0 0 0 0 0 0 0 0 0 0 0 0 0 0 0 0 0 0 0 0 0 0 0 0 0 0 -2 0 0 0
0 0 0 0 0 0 0 0 0 0 0 0 0 0 0 0 0 0 0 0 0 0 0 0 0 0 0 0 0 0 0 0 0 0 0 0 0 0 0 0 0 0 0 0 0 0 0
-1 0 0 0 0 0 0 0 0 0 0 0 0 0 0 0 0 0 0 0 0 0 0 0 0 0 0 0 0 0 0 0 0 0 0 0 0 0 0 0 0 0 0 0 0 0 0
0 0 0 0 0 0 0 0 0 0 0 0 0 0 0 0 0 0 0 0 0 0 0 0 0 0 0 0 0 0 0 0 0 0 0 0 0 0 0 0 0 0 0 0 0 0 0
0 0 0 0 0 0 0 0 0 0 0 0 0 0 0 0 0 0 0 0 0 0 0 0 0 0 0 0 0 0 0 0 0 0 0 0 0 0 0 0 0 0 0 0 0 0 0
0 0 0 0 0 0 0 0 0 0 0 0 0 0 0 0 0 0 0 0 0 0 0 0 0 0 0 0 0 0 0 0 0 0 0 0 0 0 0 0 0 0 0 0 -1 0 0
0 0 0 0 0 0 0 0 0 0 0 0 0 0 0 0 0 0 0 0 0 0 0 0 0 0 0 0 0 0 0 0 0 0 0 0 0 0 0 0 0 0 0 0 -12 0 0
0 0 0 0 0 0 0 0 0 0 0 0 0 0 0 0 0 0 0 0 0 0 0 0 0 0 0 0 0 0 0 0 0 0 0 0 0 0 0 0 0 0 0 0 0 0 0
0 0 0 0 -1 -3 0 0 0 0 0 0 0 0 0 0 0 0 0 0 0 0 0 0 0 0 0 0 0 0 0 0 0 0 0 0 0 0 0 0 0 0 0 0 0 0 0
0 0 0 -1 0 0 0 0 0 0 0 0 0 0 0 0 0 0 0 0 0 0 0 0 0 0 0 0 0 0 0 0 0 0 0 0 0 0 0 0 0 0 0 0 0 0 0
-2 0 0 0 -1 0 -1 0 0 0 0 0 0 0 0 0 0 0 0 0 0 0 0 0 0 0 0 0 0 0 0 0 0 0 0 0 0 0 0 0 0 0 0 0 0 0 0
0 0 0 0 -1 -5 -1 0 0 0 0 0 0 0 0 0 0 0 0 0 0 0 0 0 0 0 0 0 0 0 0 0 0 0 0 0 0 0 0 0 0 0 0 0 0 0 0
0 0 0 -1 -1 -1 -3 -1 0 0 0 0 0 0 0 0 0 0 0 0 0 0 0 0 0 0 0 0 0 0 0 0 0 0 0 0 0 0 0 0 0 0 0 0 0 0 0
-8 -1 0 0 -1 -1 -1 0 0 0 0 0 0 0 0 0 0 0 0 0 0 0 0 0 0 0 0 0 0 0 0 0 0 0 0 0 0 0 0 0 0 0 0 0 0 0 0
-6 -6 -2 0 -1 -2 -2 0 -1 0 0 0 0 0 0 0 0 0 0 0 0 0 0 0 0 0 0 0 0 0 0 0 0 0 0 0 0 0 0 0 0 0 0 0 0 0 0
-11 -2 0 0 0 -2 -2 -4 0 0 0 0 0 0 0 0 0 0 0 0 0 0 0 0 0 0 0 0 0 0 0 0 0 0 0 0 0 0 0 0 0 0 0 0 0 0 0
0 0 0 -4 0 -1 -2 -3 -4 -1 0 0 0 0 0 0 0 0 0 0 0 0 0 0 0 0 0 0 0 0 0 0 0 0 0 0 0 0 0 0 0 0 0 0 0 0 0
0 0 -15 0 0 0 0 -2 -2 -2 0 0 0 0 0 0 0 0 0 0 0 0 0 0 0 0 0 0 0 0 0 0 0 0 0 0 0 0 0 0 0 0 0 0 0 0 0
0 -5 -14 -14 0 0 0 0 0 -1 -2 0 0 0 0 0 0 0 0 0 0 0 0 0 0 0 0 0 0 0 0 0 0 0 0 0 0 0 0 0 0 0 0 0 0 0 0
0 0 0 -1 0 0 0 0 0 0 -1 0 0 0 0 0 0 0 0 0 0 0 0 0 0 0 0 0 0 0 0 0 0 0 0 0 0 0 0 0 0 0 0 0 0 0 0
Wind_Speed
26 26 25 25 25 24 24 24 25 27 23 21 19 15 11 13 13 13 10 10 12 11 11 8 5 3 2 5 4 2 1 5 7 6 5 4 4 3 3 1 2 4 3 3 4 6 7
25 25 25 24 25 24 24 24 23 25 27 28 28 26 18 14 13 12 14 13 13 9 7 4 2 3 2 9 6 6 4 4 5 5 5 6 5 6 4 3 2 1 4 7 7 10 7
24 24 24 23 24 24 24 24 22 21 23 25 26 26 26 24 21 17 14 12 12 8 3 2 2 1 10 3 6 3 1 2 3 4 4 5 6 6 8 6 4 4 6 8 13 10 7
23 23 24 23 23 23 23 22 19 19 21 21 21 20 20 20 19 17 13 11 7 2 3 4 6 4 4 4 5 6 1 2 2 2 2 2 4 4 2 5 6 4 1 2 6 6 2
22 22 22 23 22 23 22 22 21 19 20 19 17 16 16 16 16 16 14 12 10 11 10 6 4 7 3 3 3 5 5 4 6 3 4 5 2 2 5 3 4 2 4 2 7 4 4
20 20 21 21 22 22 23 22 21 21 21 21 19 15 14 11 7 5 6 5 8 9 5 3 1 7 3 2 2 4 4 4 4 6 5 2 2 2 3 2 3 7 4 5 7 6 4
19 19 19 19 20 20 21 21 22 21 20 19 19 18 18 16 16 14 5 4 7 7 9 6 0 4 2 3 1 3 2 5 4 3 3 4 3 5 8 2 5 4 4 6 5 11 5
18 18 17 17 18 18 19 19 20 20 20 19 17 15 16 15 17 20 5 6 2 0 2 3 4 4 2 1 2 3 1 2 4 5 8 6 5 9 5 6 7 6 8 6 8 7 6
16 16 16 17 16 16 17 18 18 17 18 19 18 16 15 13 13 5 6 3 3 0 1 3 2 2 3 1 1 1 3 5 3 4 3 3 7 6 5 6 7 5 5 4 6 8 6
14 14 15 15 16 15 15 16 16 17 17 17 18 17 16 19 4 2 3 2 2 1 5 4 2 2 2 2 2 2 2 2 3 4 5 5 3 4 6 5 3 5 2 3 7 5 4
13 13 13 13 14 14 15 15 15 15 15 15 17 15 14 9 3 3 2 4 3 4 7 4 3 2 2 1 3 3 3 2 4 5 3 8 3 3 3 1 2 7 5 4 3 4 4
12 12 12 13 12 13 14 15 15 16 15 15 17 13 12 4 2 1 4 4 3 9 4 4 2 3 2 4 3 4 3 1 3 3 4 8 3 3 5 4 4 8 5 5 1 1 3
12 10 10 11 11 12 13 14 15 16 16 16 16 11 7 0 2 3 3 3 7 7 1 5 3 4 4 4 2 3 2 1 2 7 5 7 4 2 2 4 4 1 2 3 1 1 7
12 10 9 9 11 12 13 14 16 17 17 16 17 8 4 2 1 3 3 6 9 3 1 3 3 5 3 1 2 2 2 1 2 2 2 2 9 3 3 3 2 3 1 2 3 2 5
11 11 9 8 9 10 12 14 16 16 17 18 15 1 1 1 0 3 6 6 5 1 1 4 6 2 2 1 3 2 3 2 2 2 3 3 6 2 2 1 5 3 1 2 3 3 2
11 11 10 8 9 9 11 12 15 17 19 18 3 2 0 1 2 4 6 3 1 1 1 1 1 0 2 4 1 5 2 1 2 1 3 3 6 4 3 2 3 3 5 3 2 3 5
10 10 11 10 9 7 9 11 13 17 19 10 2 3 2 3 4 5 3 4 2 3 1 1 3 3 3 2 1 2 3 0 1 3 3 2 4 8 1 5 5 1 3 2 2 3 4
11 10 10 10 9 9 7 9 11 15 19 7 3 3 2 2 4 1 2 2 1 3 2 3 2 3 3 4 3 3 3 2 5 3 2 2 3 6 10 2 3 3 4 4 4 6 3
11 11 10 10 10 9 7 7 8 11 11 2 2 3 2 3 2 3 3 3 3 4 3 3 4 6 1 2 3 5 2 4 6 5 2 1 2 5 8 5 2 4 5 4 4 3 7
13 12 11 10 10 9 8 6 6 6 8 3 2 4 4 3 1 2 2 4 3 3 3 3 3 1 1 3 6 4 2 5 7 4 5 4 3 8 8 7 2 4 5 7 7 4 4
11 11 11 11 10 10 9 6 5 4 5 2 2 2 2 4 3 1 1 3 3 3 4 6 3 7 5 3 4 5 4 3 3 7 3 4 5 5 10 17 14 15 13 11 11 10 8
10 11 10 10 10 10 9 8 6 2 6 2 0 2 3 4 3 2 3 4 4 3 6 5 5 2 8 8 8 6 2 4 7 4 6 3 5 4 8 8 10 8 14 17 18 16 19
11 10 9 9 9 10 10 9 6 5 0 1 2 2 3 4 2 2 4 5 2 1 4 2 7 2 6 11 6 6 7 4 5 9 7 6 2 3 8 6 8 7 9 15 7 6 18
12 12 9 9 8 8 9 9 6 9 6 1 2 2 2 5 3 5 4 3 6 6 6 4 5 4 4 2 6 5 4 6 6 6 5 4 4 3 6 7 4 6 4 7 14 7 16
13 14 12 10 9 8 8 9 8 11 11 2 2 3 3 4 4 7 11 8 5 6 6 7 7 4 2 1 3 7 4 4 4 2 7 5 3 2 2 2 11 4 4 6 7 8 18
11 11 13 12 10 9 9 10 9 7 14 3 3 2 3 2 8 7 4 5 4 4 3 4 2 2 2 2 2 3 5 4 3 2 5 6 4 2 1 2 6 5 2 3 3 7 6
12 11 10 11 11 10 10 11 10 7 9 5 4 5 2 4 5 6 6 4 3 2 4 2 4 2 2 3 3 5 6 4 5 8 7 3 3 7 5 5 12 10 5 2 1 8 2
14 12 11 11 10 11 11 11 10 10 11 9 3 8 6 5 6 8 7 7 3 3 4 3 2 2 2 4 5 6 5 6 2 6 8 10 10 7 5 4 12 7 4 8 7 4 3
14 13 11 12 11 11 11 10 11 11 13 10 4 4 7 4 5 2 7 12 11 13 4 5 4 5 6 2 2 2 3 1 5 5 4 4 9 8 13 12 4 10 8 8 4 4 4
Wind_Direction
25 27 31 27 31 29 32 33 44 42 46 43 40 35 60 79 83 86 75 134 155 124 118 117 126 149 318 59 58 328 320 269 292 327 3 338 357 19 353 118 153 190 286 316 308 267 250
28 28 28 33 32 31 28 30 40 49 44 41 42 46 71 87 98 104 117 105 105 99 97 101 69 340 300 76 258 265 207 261 316 328 334 21 7 334 289 306 176 290 303 297 283 268 260
33 30 29 35 32 31 29 29 35 50 58 53 37 36 40 48 57 63 73 82 70 66 86 106 301 53 56 91 337 162 299 13 311 21 349 26 5 16 328 315 308 313 296 290 267 240 230
35 31 32 29 31 31 29 29 32 38 45 56 59 48 44 41 37 34 39 48 42 18 303 307 338 48 63 307 336 332 252 193 206 256 352 4 1 306 253 310 329 275 286 286 300 139 206
36 35 31 31 30 29 31 29 29 30 32 36 45 59 46 34 23 15 5 354 334 323 299 301 4 105 61 329 35 336 29 345 323 262 246 256 14 244 337 259 299 346 308 305 314 234 190
33 36 34 31 30 30 28 28 27 26 27 24 21 23 35 42 29 2 319 228 280 323 293 295 313 57 9 26 359 318 282 297 284 313 295 208 199 304 326 242 270 303 253 236 238 286 280
33 34 36 32 30 26 27 27 24 22 21 23 24 11 358 356 352 342 348 22 17 355 36 116 259 106 33 334 52 254 269 296 259 274 264 218 76 266 266 263 233 270 282 283 274 279 257
32 32 32 34 31 28 23 24 23 20 15 10 10 10 4 354 348 342 33 69 187 218 36 30 143 133 197 131 273 222 262 332 4 308 327 2 270 274 285 310 289 289 278 280 288 315 322
25 28 29 28 30 28 23 19 18 17 13 7 360 355 354 346 334 39 70 72 285 50 121 243 205 150 219 49 316 26 58 339 266 286 339 206 256 309 338 335 346 320 301 301 249 325 301
19 23 22 24 23 23 22 18 14 10 8 3 356 347 344 332 37 314 54 355 313 87 67 293 249 248 206 221 294 129 122 152 322 286 314 268 275 360 325 312 321 312 277 349 326 338 258
9 13 16 16 17 18 15 12 8 5 2 353 347 339 334 355 283 53 294 336 321 70 46 275 302 186 238 175 241 245 179 136 232 276 52 261 333 346 311 293 2 251 324 271 271 294 331
6 4 6 7 9 9 10 6 1 358 353 348 343 333 330 39 345 340 322 330 56 45 281 334 280 278 342 211 215 185 208 280 239 291 216 238 257 212 222 286 246 273 315 326 275 272 270
356 359 355 358 360 358 0 360 360 353 347 341 339 332 322 257 258 315 358 48 41 94 239 311 314 339 315 277 256 185 262 297 38 20 350 317 259 201 167 328 356 74 287 327 302 259 235
350 348 347 347 349 352 350 354 353 349 342 336 329 317 265 234 16 25 63 51 68 238 247 291 274 289 248 350 277 286 304 71 8 85 305 51 334 179 187 208 251 291 234 150 248 271 281
346 343 334 332 338 343 344 344 346 343 338 338 328 50 305 284 194 67 71 54 204 276 239 340 319 326 304 298 315 311 222 156 134 93 159 5 278 313 214 135 126 328 281 108 265 237 315
338 339 335 327 328 332 335 339 342 341 336 341 346 355 274 316 64 60 72 226 227 27 321 244 332 153 312 319 14 7 254 153 138 148 125 288 306 259 180 50 265 189 306 31 264 338 285
328 327 328 330 324 316 320 333 341 344 337 349 28 37 268 106 77 53 117 239 290 140 112 297 318 303 282 330 332 244 269 267 163 178 191 274 130 290 77 187 196 352 307 240 129 177 200
321 324 322 325 322 320 317 323 342 350 344 48 2 7 259 79 47 140 173 256 309 197 148 271 218 245 247 304 275 262 251 197 127 133 236 237 189 269 235 241 117 167 236 163 131 279 249
316 316 318 315 318 315 312 315 337 354 26 1 3 265 316 78 103 314 273 259 220 199 210 203 246 216 66 256 307 233 272 163 152 164 214 102 263 322 342 356 334 210 203 156 102 39 233
311 316 315 311 313 316 311 301 313 342 3 89 43 354 327 30 181 168 335 264 230 214 249 216 262 102 271 261 223 259 256 188 178 157 143 112 237 199 208 216 155 218 201 179 145 139 246
305 306 308 312 314 316 313 284 275 312 345 93 64 279 197 295 313 271 312 273 249 240 223 185 254 215 183 279 285 224 237 164 178 166 161 145 232 225 256 262 262 253 241 207 198 194 192
297 298 304 308 310 313 318 307 251 251 327 99 78 20 355 278 290 264 225 243 222 258 161 236 220 174 206 206 205 228 197 213 222 183 170 182 270 11 282 266 237 253 236 227 231 227 246
288 285 292 299 302 308 317 319 262 199 34 259 165 118 123 259 252 155 227 241 323 107 269 185 205 241 257 246 236 228 212 211 195 167 198 167 158 31 271 328 313 309 228 200 197 197 216
294 289 282 281 287 293 304 314 303 206 198 183 256 119 137 270 222 210 233 266 255 221 232 226 181 180 231 315 305 272 229 235 218 217 164 149 131 171 273 336 331 252 166 181 205 223 214
323 300 287 283 277 277 289 298 305 212 201 211 204 165 190 234 242 274 256 259 274 239 232 217 218 200 122 5 321 323 322 8 234 166 184 146 137 259 258 242 289 299 202 174 174 278 218
309 327 342 316 277 282 282 283 288 276 206 175 233 178 180 185 226 236 249 241 245 225 275 222 51 48 103 154 152 232 244 250 209 149 20 146 121 144 298 211 259 229 263 226 182 292 218
315 310 320 318 331 317 298 277 267 275 236 182 224 188 163 211 253 175 209 217 218 246 257 147 178 143 90 168 191 203 239 200 206 183 169 139 196 219 221 254 275 252 174 147 235 248 286
319 313 314 307 300 301 306 303 282 267 257 200 238 193 191 224 253 208 204 200 218 207 204 151 21 210 108 188 176 227 202 228 226 166 175 171 165 199 186 221 273 157 92 175 216 271 260
316 310 310 310 308 309 311 309 292 284 268 235 239 198 212 238 266 278 268 273 236 225 185 202 216 163 205 202 250 297 268 211 183 244 148 245 204 186 193 215 254 197 210 226 223 224 263